Theta_e
308 310 315 317 319 319 319 317 317 319 319 318 318 318 313 318 322 318 319 321 334 350 346 348 352 352 352 351 356 355 353 355 353 355 358 355 346 344 344 341 342 340 340 341 343 342 340 341 338 333 331 331 331 331 334 336 333 329 328 330 330 328 328 328 328 328 328 327 326 327 331 337 340 340 340 340 340 341 341 341 340 339 338 337 335 334 333 334 334 334 334 336 337 336 336 336 335
309 310 312 317 318 318 320 319 320 321 318 314 314 319 315 318 321 319 319 317 336 351 347 350 353 353 352 352 353 355 355 352 349 352 353 347 345 345 343 343 342 340 339 341 343 342 341 342 340 335 332 331 331 332 335 336 336 332 329 330 330 330 329 329 329 329 328 327 326 326 330 335 338 339 339 340 340 341 341 341 340 340 339 338 336 334 334 334 333 332 333 334 336 336 335 335 334
309 308 311 318 316 316 321 319 320 319 314 310 309 318 317 318 320 318 319 319 338 349 348 351 351 351 351 357 359 356 355 350 348 349 349 346 346 346 344 343 341 340 340 342 343 342 340 341 341 337 332 331 331 332 335 337 337 336 333 332 332 330 330 329 329 329 329 328 328 328 329 332 336 338 338 339 339 340 341 341 340 340 340 340 339 337 337 335 331 331 333 335 335 335 335 335 333
306 308 312 318 316 317 324 323 327 322 314 312 310 318 321 320 319 317 319 328 345 348 349 354 354 350 352 363 358 355 354 351 349 349 349 346 346 346 345 342 341 339 340 342 343 342 340 341 343 339 334 331 331 331 334 337 337 337 337 336 335 332 331 330 330 329 329 329 329 329 330 332 335 337 337 338 339 339 340 340 340 341 341 341 341 340 338 335 335 334 332 334 335 334 335 334 332
307 311 313 316 319 319 322 321 326 322 313 316 314 318 325 322 317 316 318 330 345 345 348 356 356 351 352 356 352 355 355 352 350 348 349 345 346 345 344 342 339 339 340 342 343 344 342 343 345 341 337 332 331 331 333 337 337 337 337 337 337 334 333 331 331 331 331 331 331 332 332 333 334 336 336 337 338 338 339 339 341 341 341 340 340 338 335 333 335 336 333 332 335 335 335 335 334
310 313 313 313 316 316 319 317 320 320 315 317 317 318 322 320 317 317 317 328 345 346 348 354 355 354 354 350 348 352 350 351 351 347 347 344 346 345 344 343 340 341 341 342 342 343 343 344 345 343 339 333 331 331 332 336 337 337 336 336 336 336 335 333 333 333 333 333 334 333 334 334 334 335 335 336 337 338 338 339 339 340 340 339 339 337 333 332 333 335 334 331 334 336 335 335 335
311 313 316 316 315 316 322 321 321 320 317 318 319 320 318 317 317 316 317 322 337 347 352 354 351 354 354 349 349 348 345 348 348 346 346 344 345 343 343 342 341 342 341 341 341 341 343 344 344 344 341 335 331 331 332 335 337 337 336 336 336 337 336 336 335 334 335 334 333 331 331 331 332 333 332 333 336 337 337 337 338 338 338 338 337 336 333 332 331 332 333 331 332 333 333 333 333
311 315 317 320 320 318 321 322 320 319 317 316 316 320 318 318 316 314 317 316 330 348 353 353 351 356 353 349 354 349 344 346 345 346 345 344 343 342 342 340 341 341 341 341 341 343 345 344 344 345 343 338 334 331 332 334 338 337 336 336 337 338 337 338 337 336 334 332 330 329 327 326 325 326 327 329 332 334 335 336 336 336 336 336 336 336 334 331 330 330 330 331 331 331 330 329 329
311 313 314 319 320 318 321 319 316 316 317 318 317 320 320 318 316 315 317 317 336 355 353 353 352 357 354 351 355 348 344 345 344 345 344 344 342 342 341 340 340 341 341 341 343 345 345 344 344 345 344 341 336 332 331 333 337 336 336 336 337 338 337 338 338 335 333 331 329 326 324 323 323 323 324 325 328 331 333 334 334 334 334 336 335 336 334 331 330 328 327 329 328 328 327 327 327
312 313 313 318 320 316 318 317 316 318 318 319 315 316 317 315 315 314 314 316 338 357 353 349 351 353 352 352 353 347 344 344 343 344 343 343 342 341 341 341 340 341 342 341 343 344 345 344 343 345 343 341 339 335 331 333 335 336 336 336 336 337 337 338 336 334 333 330 327 326 325 325 325 324 324 324 327 330 332 333 333 333 334 335 335 335 333 330 328 326 326 327 326 325 325 325 325
317 314 315 321 319 315 315 316 321 323 318 316 315 317 317 313 313 312 315 327 345 357 354 350 351 350 350 353 351 346 343 343 343 343 341 342 342 342 341 340 340 339 340 339 341 344 344 343 342 343 342 342 342 337 332 333 334 335 336 335 336 336 337 337 336 334 332 329 327 328 328 328 328 327 325 324 327 331 331 332 332 333 333 333 334 333 331 328 327 326 326 325 325 325 324 324 324
317 315 320 324 321 318 317 317 320 324 321 316 318 320 315 311 313 310 321 346 354 355 353 354 353 348 352 354 350 344 343 343 342 342 341 342 341 341 340 339 338 337 335 336 339 342 342 341 341 341 341 342 342 340 336 334 335 335 336 335 336 336 337 337 335 333 330 328 329 330 330 330 331 329 328 325 327 330 331 331 330 330 330 331 332 331 329 327 325 325 325 325 325 325 324 324 323
321 319 321 319 319 320 317 316 316 323 325 318 317 316 313 312 311 318 337 351 352 351 348 349 351 350 353 353 349 345 343 343 342 342 341 341 340 339 339 337 336 333 332 335 338 339 338 337 338 339 341 342 341 340 339 337 336 335 336 336 336 336 336 337 335 332 329 329 331 331 331 331 331 331 329 328 328 328 329 328 327 327 327 329 330 330 328 326 324 324 324 325 325 325 325 324 323
322 321 322 316 315 319 315 315 315 317 321 319 316 312 313 313 310 324 346 350 346 347 346 346 348 352 355 351 351 347 344 343 342 342 341 340 340 338 338 337 334 332 332 336 337 336 334 332 334 336 338 341 341 340 340 339 336 335 336 336 336 336 337 337 334 331 329 330 331 331 331 332 331 331 330 330 329 329 328 327 326 327 327 328 329 330 328 325 323 324 324 325 325 325 325 324 323
315 321 326 318 314 315 313 314 315 315 317 318 314 312 314 314 316 327 343 350 349 344 345 346 343 346 352 353 353 347 343 343 342 341 340 340 338 337 337 335 332 332 334 336 335 334 334 333 333 333 334 339 341 341 340 339 337 336 337 337 336 336 337 336 332 329 330 330 331 332 332 332 332 331 331 330 329 329 328 328 328 329 329 329 329 329 329 327 325 324 325 325 326 325 326 325 323
314 322 323 317 315 313 312 312 313 315 317 318 314 311 315 315 323 337 339 344 350 344 346 349 343 342 348 351 349 344 343 342 342 341 339 338 337 337 336 334 333 335 336 335 335 335 336 337 334 333 334 338 340 340 339 338 337 337 338 337 336 336 336 334 331 329 330 330 331 332 332 333 332 332 332 331 330 329 328 329 329 328 329 329 329 330 330 329 327 326 325 325 326 326 325 325 324
313 320 320 316 316 313 314 314 314 315 317 319 314 312 314 313 323 340 342 343 349 347 346 346 345 344 347 348 345 343 342 341 341 341 339 337 337 337 337 337 336 337 337 335 336 334 335 336 335 335 337 338 339 338 338 338 338 339 338 337 336 336 335 332 330 330 331 331 333 333 333 333 331 331 331 331 330 328 329 329 329 328 327 327 328 330 330 330 329 327 326 326 326 325 325 325 325
313 320 320 315 316 316 318 319 316 314 314 316 314 312 312 312 318 332 345 346 346 348 345 344 345 344 344 344 343 342 341 341 341 341 339 337 337 338 339 339 337 337 336 336 337 335 334 334 334 337 338 338 337 337 337 337 339 338 337 336 336 336 334 332 330 331 332 332 334 333 334 334 332 331 331 331 330 329 329 329 328 327 326 325 326 328 330 330 330 328 327 326 326 325 324 325 325
316 319 316 317 318 317 318 319 316 313 314 314 314 312 310 314 311 323 349 350 350 355 348 345 347 346 344 343 342 341 341 341 341 340 339 337 337 337 338 338 336 335 335 337 338 337 335 333 334 336 337 337 336 336 336 338 338 337 336 337 336 334 333 332 331 333 333 333 333 334 335 335 333 331 330 331 330 329 329 329 328 327 325 324 324 326 328 330 330 329 327 327 326 325 324 325 325
316 316 314 319 318 316 317 317 315 313 312 313 315 312 312 314 309 326 351 348 353 358 350 349 350 348 347 344 342 341 341 341 341 340 340 338 337 336 338 337 336 335 334 337 339 339 336 333 335 334 333 336 336 337 336 338 338 337 336 336 335 333 333 333 332 333 334 332 332 333 335 336 335 332 331 331 330 330 330 329 328 327 324 322 321 322 324 327 329 329 328 327 327 326 325 325 325
312 312 316 318 313 314 316 316 316 313 311 313 313 312 314 312 315 341 353 345 350 351 347 350 350 348 347 345 343 342 341 341 340 340 340 339 338 336 337 336 336 334 333 337 340 339 337 334 335 333 332 335 335 335 336 338 337 336 336 335 334 332 333 334 332 333 333 332 332 333 334 335 335 333 332 332 331 329 329 329 328 325 322 320 320 320 321 323 326 329 328 327 327 325 325 325 324
311 312 315 315 311 312 314 315 315 312 312 312 312 312 314 310 317 340 346 343 347 344 345 345 344 347 346 345 344 342 342 341 340 340 340 339 338 337 336 336 336 335 334 338 339 339 337 335 334 332 333 333 331 334 336 338 337 335 334 333 333 332 333 334 333 333 333 333 333 333 333 333 334 334 333 332 332 330 329 328 327 324 321 321 322 322 324 324 324 327 328 327 326 324 324 324 324
313 314 314 314 311 310 313 313 313 313 312 310 314 311 312 314 313 327 337 339 339 337 342 342 342 344 344 343 344 344 343 342 341 340 340 339 338 338 337 336 336 335 335 337 337 337 336 334 334 332 332 332 331 334 336 337 336 333 332 332 332 332 333 334 333 333 334 334 333 332 332 332 332 332 332 331 332 332 330 330 329 326 324 323 324 325 327 328 328 326 326 326 325 323 323 325 326
311 314 314 313 311 311 313 312 310 312 311 311 312 309 313 312 309 330 349 348 341 341 343 342 342 344 344 343 343 344 343 342 341 340 340 339 338 338 337 336 336 335 335 335 335 336 334 333 334 332 334 335 333 334 336 336 335 332 331 331 332 332 334 334 334 333 334 334 333 332 331 331 331 331 331 331 332 333 332 332 330 329 328 326 326 327 328 329 331 330 327 325 324 323 325 328 328
311 312 313 312 311 312 312 310 310 311 311 311 309 310 313 310 318 345 356 348 345 345 342 342 342 343 343 343 343 344 343 342 341 340 340 339 338 338 337 336 335 335 335 335 335 336 335 333 334 335 336 335 333 333 335 335 334 332 331 331 333 333 333 334 334 334 333 334 333 332 331 331 331 331 331 331 332 333 334 333 331 331 331 330 329 328 329 330 331 331 329 326 323 325 328 330 329
312 312 311 311 310 312 311 309 312 310 310 309 309 313 311 314 329 350 350 345 345 342 342 343 343 344 343 343 343 343 343 342 340 339 340 339 338 338 337 336 335 335 334 335 336 335 335 334 335 336 334 333 333 334 335 333 333 332 331 331 333 333 333 333 334 334 334 335 334 333 332 332 331 331 331 331 332 333 334 333 332 332 332 332 331 330 330 330 331 331 330 326 325 328 330 329 329
312 312 311 311 311 311 310 310 312 308 310 310 310 314 310 315 327 342 349 345 343 342 343 342 343 345 342 342 342 342 342 341 340 340 338 338 338 337 336 336 334 334 334 335 336 334 333 334 336 336 334 334 334 333 333 332 332 333 331 331 333 333 333 333 334 334 335 336 335 334 334 333 333 333 333 333 332 333 334 334 333 333 333 332 332 332 331 331 331 331 330 328 327 329 329 329 329
311 311 311 314 312 311 311 311 311 308 311 311 310 312 309 314 325 342 352 344 342 344 343 342 344 344 341 342 341 340 340 339 339 338 337 337 337 337 335 335 334 334 335 335 335 334 334 336 336 336 335 336 334 332 333 332 332 332 332 332 333 333 333 334 335 335 336 336 336 336 336 335 334 334 334 334 333 333 334 334 334 334 333 333 332 332 332 331 331 331 331 330 329 329 329 330 329
311 311 312 317 314 314 313 312 311 309 311 311 310 310 310 314 317 335 348 343 343 344 343 343 343 342 342 341 339 338 338 337 337 336 337 336 335 336 335 335 334 335 335 335 335 336 337 338 337 337 337 336 335 334 334 334 334 334 334 334 334 334 334 335 336 336 336 337 336 336 335 335 334 334 334 334 334 334 334 334 334 333 332 333 333 332 332 332 332 331 331 331 330 330 330 330 330
312 311 312 316 316 316 313 310 310 309 312 311 310 311 316 319 313 330 345 343 343 343 343 344 343 343 342 340 339 337 336 336 335 335 336 336 335 335 334 335 335 335 336 336 336 337 338 338 338 338 338 337 336 336 337 337 337 337 337 337 336 336 336 336 337 337 337 337 337 336 335 335 334 335 334 334 335 334 334 334 333 332 331 332 333 332 332 332 331 331 331 330 330 330 330 330 330
312 309 314 315 312 317 318 313 312 310 311 312 310 311 317 319 321 337 347 343 344 344 344 344 343 343 341 340 339 337 336 334 334 334 335 335 334 334 334 335 335 336 336 336 337 338 339 339 339 339 338 338 339 339 340 339 339 338 339 339 338 338 337 337 337 338 337 336 336 334 334 334 334 334 335 334 334 333 334 334 333 330 328 330 332 332 331 332 332 332 331 330 329 329 329 329 329
317 310 320 321 312 317 321 314 313 312 311 311 310 312 317 319 328 343 346 343 344 343 344 344 344 343 341 340 338 338 336 333 333 333 334 333 333 334 334 335 335 336 337 337 338 339 340 339 339 340 339 340 340 341 341 340 340 339 339 339 338 337 336 336 337 337 337 336 335 333 332 332 333 334 334 334 334 333 333 333 332 330 329 331 333 332 331 332 332 332 332 331 329 329 328 328 328
326 315 318 320 314 317 319 314 313 313 311 311 309 315 321 323 335 345 344 344 344 343 345 344 343 343 341 340 339 338 336 334 333 332 333 333 333 334 334 334 336 336 337 339 340 340 340 340 341 341 341 341 341 341 340 340 339 339 338 337 336 335 334 335 335 335 335 335 334 333 333 331 332 333 333 334 334 333 333 332 331 330 331 331 333 333 332 332 332 333 332 331 330 329 328 328 328
326 322 322 320 316 316 317 317 315 311 310 313 310 315 322 322 335 346 346 343 344 344 345 344 344 342 340 340 339 338 337 336 335 332 332 333 333 334 334 334 335 337 338 338 340 340 340 341 341 341 341 341 341 340 339 338 337 337 337 336 335 333 333 332 332 333 333 332 332 333 333 332 331 332 333 333 334 333 332 332 331 331 331 330 332 333 333 332 332 332 332 331 329 328 327 327 328
319 320 322 319 318 316 316 319 317 313 312 313 310 312 315 316 333 346 346 344 346 344 344 344 343 342 341 340 338 338 336 336 335 332 332 333 333 334 334 334 335 335 336 336 337 339 340 341 341 341 340 339 340 338 337 337 336 336 335 334 333 331 331 330 331 331 331 331 332 332 332 331 331 332 332 332 332 333 333 332 331 332 331 330 332 333 333 332 332 332 332 331 329 328 327 327 327
317 316 318 318 319 317 316 317 316 314 312 313 312 312 313 319 338 348 346 344 346 344 344 345 343 343 341 339 338 337 336 336 334 332 332 332 333 333 334 334 334 335 335 334 335 336 338 340 340 340 339 338 337 335 335 335 335 335 334 333 331 330 329 330 330 331 331 331 331 332 331 330 330 330 331 331 332 332 332 332 332 332 332 331 332 332 332 331 331 331 331 331 330 328 328 328 327
315 316 318 318 318 317 317 317 316 314 312 314 313 313 319 328 340 346 345 344 346 345 346 345 344 343 340 340 339 337 336 334 331 331 332 332 332 332 333 333 333 334 333 334 335 335 335 337 339 339 338 337 335 334 333 333 334 333 333 332 330 328 329 329 330 330 330 330 330 330 330 330 330 329 330 331 331 332 332 332 332 332 332 331 331 331 331 331 331 331 331 330 329 328 329 328 328
314 315 317 317 318 319 318 316 318 316 313 314 312 313 322 331 339 345 343 343 345 345 346 345 343 342 340 339 338 337 335 332 331 331 330 331 332 332 332 332 332 332 332 334 335 335 334 335 337 337 337 336 334 333 332 331 332 331 330 330 328 327 328 329 329 329 329 329 329 329 329 329 329 329 329 329 330 331 331 331 330 331 330 330 330 330 331 331 330 331 330 328 327 328 329 329 328
319 318 317 318 318 317 317 318 321 319 314 313 313 315 319 323 332 340 342 343 343 341 341 341 340 341 341 339 338 336 335 334 334 333 330 330 331 331 332 330 330 331 332 334 335 334 333 333 335 336 336 335 333 332 330 330 331 330 328 328 328 327 328 329 329 329 328 329 328 327 326 327 327 328 328 328 327 327 329 329 329 330 330 330 330 330 330 330 330 329 329 328 328 328 329 329 328
324 320 317 319 317 314 316 321 324 322 317 316 318 320 320 322 328 334 337 337 338 339 339 338 338 339 339 338 337 335 335 335 334 334 331 328 329 330 330 330 330 331 331 333 334 333 332 333 334 335 335 334 333 331 329 330 329 329 329 328 328 327 327 328 328 328 327 327 326 325 324 323 325 327 327 326 325 325 327 328 328 329 329 329 329 329 329 329 329 329 328 328 328 328 329 328 327
323 322 319 320 319 316 315 320 327 328 321 320 326 324 319 324 330 334 334 328 329 337 340 339 337 336 335 335 336 335 335 334 332 334 332 328 328 328 329 330 330 331 331 333 334 332 331 332 333 333 333 333 332 329 329 329 328 328 329 328 328 327 326 327 327 326 325 325 324 323 322 321 323 325 326 326 324 324 326 328 328 328 328 328 328 328 328 329 329 328 327 327 327 327 327 326 326
320 322 323 322 323 320 318 321 328 329 321 317 322 320 318 326 330 329 328 326 328 335 340 340 337 336 335 334 336 334 333 333 331 330 330 327 327 327 329 329 329 330 331 332 333 333 331 331 331 331 332 331 329 329 328 327 326 327 327 327 327 327 326 326 325 324 323 322 322 321 320 320 321 323 324 325 324 323 325 327 327 327 327 327 327 327 328 329 330 328 327 327 326 327 326 325 325
319 322 322 321 322 320 321 324 322 322 320 317 320 320 320 325 326 322 322 324 329 333 337 339 337 336 336 334 334 335 334 333 331 329 330 329 326 327 328 329 329 330 330 331 332 332 331 330 330 330 330 329 329 328 327 325 325 325 324 325 327 326 325 324 323 322 322 321 321 320 320 320 321 322 323 324 324 323 323 325 325 326 326 326 327 327 327 328 328 328 327 326 326 326 326 325 325
321 322 319 320 321 320 328 333 324 321 321 320 326 329 323 320 321 324 323 322 326 331 335 336 335 335 335 335 334 334 334 333 332 331 332 330 326 326 328 328 329 329 330 331 331 330 330 330 330 329 328 328 327 326 325 324 323 324 324 325 326 325 324 323 322 321 321 320 320 319 319 320 320 321 321 321 323 323 322 322 321 323 325 325 326 327 327 328 328 328 328 327 326 326 325 325 325
323 322 318 320 322 326 335 334 328 327 319 317 329 327 320 325 331 328 322 321 326 331 333 334 334 333 332 334 334 333 333 333 331 331 331 329 326 326 328 329 329 329 329 330 330 330 329 329 328 327 327 327 325 324 323 323 322 322 323 325 326 324 323 322 322 321 321 320 319 318 318 318 319 320 320 320 322 322 321 320 320 322 324 324 324 326 327 326 326 327 327 327 327 326 326 326 325
320 319 317 320 323 330 337 333 328 329 322 320 327 322 316 327 339 329 316 317 326 333 334 331 329 330 330 331 333 333 332 332 331 330 329 326 325 328 328 329 329 329 329 329 329 328 328 328 327 326 326 325 324 323 322 322 322 321 322 323 324 323 322 321 321 320 320 319 319 318 318 317 317 318 319 320 321 321 320 319 319 321 324 324 324 324 324 324 324 324 325 326 326 326 326 326 325
314 318 320 319 325 332 336 335 329 323 323 325 327 324 317 321 334 331 320 318 323 327 329 328 327 328 329 330 332 333 331 331 330 330 328 323 325 328 328 329 329 328 329 329 328 327 327 327 326 326 325 324 324 323 323 322 321 321 322 323 324 323 322 320 319 319 319 320 319 318 318 317 317 318 318 318 319 319 318 319 319 320 322 323 323 322 322 322 322 323 323 323 323 323 323 324 325
315 323 322 317 322 329 330 332 327 320 325 328 326 324 318 318 327 325 322 322 320 319 319 323 325 325 327 328 329 331 331 329 329 331 330 326 325 326 327 329 328 328 329 329 329 328 327 326 325 326 325 324 324 323 323 322 322 322 322 323 323 323 322 319 317 317 318 319 319 319 318 317 317 317 317 318 318 318 318 318 318 318 320 321 321 321 321 320 321 321 321 319 317 318 319 321 323
318 321 324 320 321 324 322 325 325 324 326 322 323 323 318 324 328 318 317 319 317 317 315 315 316 316 322 327 328 330 330 329 329 330 330 329 327 325 325 328 328 329 329 329 329 329 328 326 325 325 325 325 324 323 323 323 322 323 323 323 323 322 321 319 316 315 317 319 319 318 318 317 317 316 317 317 317 316 315 315 316 318 319 320 320 320 320 320 321 320 319 317 315 315 316 318 320
314 316 322 322 322 322 320 321 321 323 324 320 320 321 319 325 324 316 317 318 318 321 319 318 316 316 321 327 328 329 328 328 328 327 328 328 325 322 324 327 327 328 329 329 330 329 329 327 325 325 325 325 324 323 323 323 322 322 322 322 322 321 320 318 316 313 315 319 319 318 318 317 316 315 315 315 314 313 312 311 313 317 318 318 318 319 319 319 319 319 318 317 316 315 314 315 315
313 316 317 319 326 326 321 322 323 321 322 321 318 316 320 325 319 315 318 319 321 326 326 326 324 322 325 327 327 327 326 327 327 326 329 327 322 322 325 326 327 328 328 328 329 330 330 328 326 325 324 323 322 322 322 322 320 321 321 321 320 319 319 318 316 313 313 318 319 318 318 316 313 313 314 313 312 311 310 308 310 314 315 313 313 313 314 314 315 317 318 318 315 313 311 312 312
311 312 314 316 322 327 322 318 323 325 322 322 319 316 323 324 317 318 322 321 323 326 327 328 328 325 326 327 326 327 327 328 327 328 332 329 323 323 325 324 325 327 328 328 329 329 330 329 327 324 322 321 321 321 321 320 320 321 322 322 320 319 318 317 316 315 315 317 317 316 316 313 310 312 313 313 312 311 310 308 308 310 309 307 306 306 306 306 307 310 313 312 310 308 309 309 309
313 310 314 316 315 325 325 315 317 323 321 321 318 317 323 323 317 319 324 325 325 326 326 328 328 327 328 327 326 327 327 327 328 330 333 331 325 323 324 323 323 325 327 327 328 329 329 329 327 324 322 321 320 320 320 319 320 321 321 321 321 319 319 317 317 316 315 314 315 315 315 312 309 311 313 312 312 311 310 309 309 309 308 305 304 303 303 303 303 304 305 305 305 306 308 307 306
316 312 314 314 311 318 326 323 323 322 320 321 318 317 323 327 325 323 323 325 326 326 328 327 328 327 327 327 327 327 327 326 326 328 328 327 324 322 323 323 323 325 326 326 327 327 328 328 327 325 322 321 319 319 320 320 320 320 320 320 320 319 318 318 318 317 315 314 315 315 315 313 310 310 311 311 312 311 311 311 311 310 310 308 306 304 303 302 302 302 302 302 304 306 307 306 305
313 314 312 313 316 318 318 321 324 320 318 319 317 316 320 325 329 326 321 322 324 326 328 328 328 327 326 327 327 328 329 327 324 324 325 324 323 323 324 323 323 324 324 325 325 326 327 326 325 324 322 320 318 319 320 320 319 319 319 319 319 319 318 318 319 317 314 315 316 316 316 314 311 310 311 310 311 312 311 312 312 311 311 311 310 307 304 303 303 303 302 302 304 305 305 307 307
309 312 313 317 324 324 318 319 322 323 322 319 317 319 323 327 329 323 318 321 323 324 326 326 326 326 326 326 325 326 327 325 323 324 327 324 320 320 322 322 323 323 323 324 324 325 326 325 324 323 322 320 319 318 319 319 319 319 319 319 318 318 318 318 319 316 312 313 316 316 317 315 311 310 310 309 310 311 312 312 312 312 312 312 312 311 308 305 304 305 304 303 304 304 304 305 307
313 319 319 318 318 315 315 316 316 322 327 325 321 321 326 329 324 319 318 321 323 324 325 325 324 324 325 323 325 326 326 326 326 328 329 324 317 318 321 321 322 323 323 323 324 324 325 324 323 323 322 321 320 318 319 319 319 319 318 318 317 317 317 319 319 315 311 312 315 316 318 316 312 310 310 309 309 310 311 312 312 312 312 312 313 313 311 308 306 306 307 306 305 305 305 305 305
318 321 317 317 317 317 318 315 312 320 326 324 324 325 325 321 315 317 319 320 321 322 325 327 324 323 324 322 323 325 326 329 330 332 331 323 316 317 320 321 322 322 322 323 323 323 324 324 323 323 322 322 321 319 318 319 319 318 318 318 317 316 317 319 319 315 312 313 315 317 318 318 314 312 312 310 309 310 312 313 312 312 312 313 312 312 312 310 308 308 308 308 307 306 306 305 305
Wind_Speed
2 3 3 1 2 4 2 2 2 2 2 0 3 2 4 4 1 2 5 5 4 2 1 2 2 1 3 7 7 7 3 3 4 4 3 1 8 17 19 19 27 29 28 26 24 24 25 27 25 24 23 22 21 22 23 23 23 23 24 24 24 24 24 24 25 25 25 25 24 23 23 22 21 19 19 18 17 17 16 16 17 17 17 17 17 17 17 16 14 13 13 13 12 12 13 13 13
3 3 1 2 3 4 2 2 3 2 3 1 4 4 4 3 1 3 7 7 2 1 3 5 6 6 7 8 8 5 4 2 3 3 1 7 14 13 15 20 27 28 27 25 25 24 25 27 25 24 23 22 21 21 22 22 22 22 22 22 22 22 22 23 23 23 23 23 22 22 21 20 19 18 18 17 17 16 16 16 17 17 17 16 16 17 17 17 15 14 14 13 13 12 13 13 14
3 3 3 5 3 2 1 3 2 1 3 2 5 4 3 1 3 3 7 7 3 3 3 2 4 4 5 6 4 3 1 2 4 2 4 11 11 10 16 22 26 27 25 25 25 24 25 27 25 25 23 22 21 20 21 20 20 21 21 21 21 21 21 21 21 21 21 21 20 20 19 18 17 17 16 16 16 16 15 16 16 16 17 16 16 17 16 16 16 15 14 14 13 13 14 13 16
3 4 4 5 2 3 3 3 2 4 3 4 4 5 3 3 4 3 7 4 4 3 1 3 3 3 3 5 3 3 3 2 5 4 4 8 9 14 21 24 27 27 25 25 24 23 24 26 25 24 23 22 20 19 20 19 19 19 19 19 19 19 19 19 19 19 19 19 19 18 18 17 16 16 16 16 16 16 16 16 16 15 16 16 15 16 15 14 15 16 15 14 14 14 14 14 16
4 5 4 3 2 1 3 2 2 3 4 4 2 5 4 4 3 3 6 5 4 3 2 4 2 4 2 4 1 1 2 3 6 5 5 9 15 21 24 27 29 27 25 24 23 22 22 22 21 21 22 21 20 18 18 18 18 17 17 17 18 18 18 18 17 17 17 17 17 17 16 16 15 15 15 15 15 16 16 16 16 15 15 16 15 16 15 14 14 14 13 13 14 15 14 14 15
5 5 3 3 2 1 3 2 2 3 4 4 2 5 4 5 4 4 5 7 3 2 3 3 2 1 3 3 2 3 3 1 2 4 6 12 21 23 24 26 26 24 23 22 21 20 21 20 19 19 20 20 20 18 17 17 17 17 16 15 16 16 17 16 17 16 16 16 15 15 15 15 15 14 14 14 14 14 14 15 15 15 15 15 15 15 14 14 14 13 12 12 13 13 13 13 13
5 4 2 3 1 1 4 3 4 4 4 4 4 6 6 4 6 4 4 5 1 3 3 3 4 4 2 1 2 5 7 3 2 5 9 17 23 23 23 24 23 22 20 20 20 20 20 20 19 19 19 19 19 18 17 17 17 16 16 15 14 14 15 15 15 15 15 15 14 14 14 14 14 13 13 13 14 14 14 14 14 14 13 13 14 14 13 14 14 13 12 13 13 12 12 12 12
4 2 1 4 1 2 4 3 3 3 3 4 4 7 10 7 4 2 2 3 1 1 2 4 5 5 1 1 2 5 10 8 9 12 16 21 22 23 23 23 23 20 18 19 19 20 21 20 20 19 18 18 17 18 18 17 17 17 16 15 14 13 14 14 13 14 14 14 14 13 13 13 13 13 13 13 13 13 13 13 13 13 12 12 12 11 12 13 13 13 13 13 14 13 11 11 10
2 2 1 3 2 1 2 2 3 3 4 5 4 7 10 9 4 2 4 3 2 3 3 3 4 5 2 3 4 3 7 11 16 19 21 22 21 23 23 23 23 20 18 18 19 20 21 21 21 20 20 19 18 17 18 18 17 17 16 14 13 13 13 13 13 13 13 13 13 13 13 13 13 13 12 12 12 12 12 12 11 11 11 10 9 9 9 11 12 12 12 13 13 11 10 10 9
2 2 2 2 3 1 2 2 3 3 5 5 5 9 10 8 4 5 6 5 5 5 4 4 6 6 6 5 4 3 6 15 22 22 21 22 21 23 22 21 22 20 20 20 20 19 19 20 20 20 19 20 20 19 19 18 18 17 16 14 13 13 12 12 12 12 12 11 12 12 12 12 12 12 12 12 12 11 11 11 10 10 9 8 7 7 7 9 10 11 12 13 12 11 10 10 9
2 2 3 3 3 3 3 3 3 4 5 4 6 9 8 7 4 4 6 5 4 6 5 4 8 8 7 4 2 4 10 17 23 21 20 21 21 22 22 21 21 21 23 21 21 19 18 17 17 18 17 19 21 21 20 19 18 17 16 15 13 12 12 12 12 11 11 11 12 12 12 12 11 11 12 12 12 11 11 10 9 8 8 7 6 5 5 7 9 10 12 12 12 11 10 10 9
2 2 4 4 3 4 4 2 3 5 6 4 5 6 4 5 4 2 5 6 5 7 4 3 7 7 7 3 2 7 12 16 21 21 20 21 22 23 23 22 22 22 23 22 22 21 19 18 17 16 15 17 19 20 20 19 18 17 16 15 13 12 12 12 11 10 10 11 11 11 11 11 11 10 11 11 11 11 10 9 8 8 7 7 6 5 6 7 7 9 10 11 10 9 9 9 9
3 2 5 3 3 3 3 2 3 4 5 3 4 6 5 5 4 2 6 8 6 6 2 4 9 6 5 4 3 6 10 15 20 21 21 22 22 23 23 22 23 23 23 23 23 23 21 20 19 17 15 16 17 19 18 18 18 17 16 15 13 12 12 12 11 10 11 11 11 11 10 10 10 9 9 10 10 10 9 9 8 8 8 7 7 6 7 7 7 8 9 9 9 8 7 8 9
3 3 5 3 1 3 3 1 1 1 3 5 3 6 7 5 2 1 7 9 4 2 2 4 8 5 4 5 4 4 9 18 21 21 22 23 23 23 22 22 23 23 23 22 23 23 23 22 21 20 18 16 17 18 18 17 17 17 16 15 13 12 12 12 11 11 11 11 11 11 10 10 9 9 9 9 8 8 9 8 8 8 8 8 7 6 6 7 7 8 8 8 8 7 7 7 9
3 2 4 3 1 1 2 1 2 3 3 6 2 7 7 4 2 4 6 6 2 1 3 5 3 2 4 7 5 6 14 22 21 22 25 24 24 23 22 22 23 23 22 22 23 23 24 24 24 23 21 19 18 18 18 18 17 18 17 15 14 13 14 13 12 12 12 11 10 10 10 9 9 8 8 8 8 8 8 8 7 7 7 7 7 6 6 6 7 7 7 7 7 6 7 7 8
2 3 4 2 1 1 2 2 2 2 4 6 3 6 7 6 5 4 2 3 5 3 3 3 3 1 5 6 7 14 20 23 22 24 26 25 24 22 21 21 22 22 22 22 22 23 23 22 24 24 24 23 21 21 20 20 19 18 17 15 14 14 14 14 13 12 11 10 10 10 9 9 9 8 8 8 8 7 7 8 7 7 6 6 7 6 6 5 6 6 6 6 5 5 6 6 8
2 4 4 0 3 3 3 3 3 2 5 6 4 7 6 7 6 3 4 6 7 4 5 3 4 2 4 7 17 23 22 25 26 26 25 23 22 21 19 18 19 20 20 21 21 22 21 21 22 23 23 24 23 22 21 21 20 18 17 15 15 15 14 14 13 12 11 10 9 9 9 9 9 8 8 8 8 7 7 7 6 6 5 5 6 5 5 5 5 5 5 5 4 4 4 5 6
3 3 2 2 3 3 5 6 5 3 3 6 6 5 4 4 2 2 5 8 5 6 5 5 6 6 9 17 26 26 25 27 26 25 23 20 19 19 19 19 19 18 18 19 19 20 22 22 22 21 21 23 23 23 22 22 21 20 18 16 16 15 14 13 13 12 11 11 10 9 8 8 8 8 8 8 7 7 6 6 5 5 4 3 4 4 5 5 5 5 4 4 4 4 4 4 5
3 3 2 4 5 4 5 5 5 3 2 6 8 3 3 2 3 3 2 2 3 6 4 6 10 10 13 17 24 25 26 26 24 25 22 18 19 18 18 18 19 17 18 19 19 20 22 23 23 22 21 21 22 22 22 21 21 20 18 17 16 15 13 13 12 12 11 11 10 9 8 7 7 7 7 6 6 7 6 5 4 4 3 2 2 2 3 4 4 4 4 3 3 4 3 4 5
2 3 1 5 6 4 4 5 6 3 1 6 9 5 6 5 3 2 5 4 2 4 3 6 9 11 13 13 18 23 23 21 22 22 20 19 19 19 19 20 20 20 22 21 20 20 22 23 22 22 21 21 21 21 21 20 20 20 19 18 16 15 14 13 12 12 11 10 9 8 7 7 6 6 6 5 5 6 6 5 4 3 3 2 1 1 1 2 4 5 4 3 3 3 3 3 4
1 3 4 4 4 2 6 7 8 4 2 2 6 6 8 6 1 3 8 7 0 5 6 7 12 15 14 12 14 18 17 16 18 19 18 18 18 19 19 19 20 22 24 21 19 20 22 23 21 21 21 20 20 19 20 19 20 19 18 17 16 15 14 13 12 11 10 9 8 7 7 6 6 6 6 6 5 5 5 5 4 3 2 1 1 1 1 0 2 4 4 2 2 3 2 3 3
1 3 5 4 5 2 7 6 6 5 2 2 4 5 6 4 3 3 7 6 4 6 7 9 15 18 15 14 14 14 13 11 13 16 18 18 18 18 17 18 18 20 22 19 19 21 22 22 22 22 21 20 20 19 20 19 18 19 18 17 16 15 14 13 13 12 10 9 8 8 7 7 7 6 6 6 6 5 5 4 3 3 2 1 1 2 3 2 1 2 3 2 1 2 2 3 3
1 3 2 4 4 3 6 3 4 3 1 3 3 3 3 3 3 1 2 3 5 6 5 11 15 17 15 15 14 12 12 10 11 16 18 18 19 19 20 21 19 19 20 18 20 21 21 22 21 21 19 19 20 19 20 18 18 19 18 17 17 16 14 14 13 12 11 10 9 8 7 7 7 7 7 6 6 5 4 3 2 2 1 1 1 2 3 3 2 1 1 1 1 2 2 3 4
2 3 4 4 4 5 7 3 3 3 5 8 2 4 5 3 2 1 2 4 5 3 6 12 15 16 15 14 14 13 13 12 13 17 19 19 20 21 21 21 19 19 19 17 20 21 21 21 18 18 18 19 19 17 18 19 18 18 18 18 17 16 15 14 14 12 11 10 9 8 8 8 8 7 7 7 6 5 4 4 3 2 2 2 2 2 3 2 2 3 1 1 2 3 3 4 5
2 4 4 3 3 6 7 5 6 6 7 6 1 5 8 7 3 3 2 4 3 4 9 12 16 15 12 13 15 14 12 12 13 15 17 18 18 18 18 17 17 17 17 16 18 19 19 18 16 17 17 18 18 17 19 20 18 18 18 17 16 16 16 14 13 13 11 10 9 9 9 9 9 9 9 8 7 6 5 5 4 3 3 3 3 3 3 2 3 3 1 1 3 4 3 4 5
5 6 4 3 4 6 5 5 7 6 5 3 2 8 9 4 3 1 3 2 4 8 10 12 16 14 11 12 13 13 12 12 13 15 17 17 17 17 16 15 14 15 15 14 16 18 17 17 16 17 16 17 20 19 19 19 17 17 18 17 16 15 15 14 14 13 12 11 11 11 11 11 11 10 10 9 8 7 6 6 5 4 3 4 3 3 2 2 2 2 1 1 4 4 3 3 4
5 6 4 6 6 6 3 5 6 3 4 6 7 8 5 1 1 3 3 7 8 10 11 12 14 11 10 10 11 11 10 12 14 14 14 14 16 16 14 13 13 12 13 13 14 16 17 17 17 17 17 18 20 20 18 18 17 17 17 16 16 15 15 15 14 14 14 13 12 12 13 12 12 11 10 10 9 9 8 7 6 5 4 3 3 3 3 3 2 2 1 1 3 3 2 2 2
3 4 3 6 5 6 3 5 6 2 4 8 9 5 1 4 1 5 4 9 9 12 13 13 11 8 9 10 9 8 7 10 13 12 11 12 15 15 12 13 13 12 12 13 14 16 17 18 18 18 18 18 19 19 18 17 17 17 16 16 16 15 14 14 15 14 15 15 14 14 14 14 13 12 11 11 10 10 9 8 7 5 4 4 4 4 4 3 3 2 2 1 2 3 2 1 1
1 3 2 7 7 6 5 4 4 4 3 7 8 2 3 0 5 5 5 11 9 11 13 12 10 7 8 9 7 6 6 8 10 10 11 13 13 12 12 12 14 14 13 14 15 17 18 19 19 19 19 18 18 18 17 16 16 16 16 15 15 15 14 14 14 14 15 15 15 14 14 14 14 13 12 11 11 10 9 9 7 4 4 5 6 6 5 4 4 3 3 3 3 4 3 3 2
2 2 1 4 7 6 6 1 2 4 3 5 8 2 5 6 8 5 8 13 11 11 12 11 9 8 8 8 6 6 6 7 7 9 12 13 12 11 12 12 15 15 14 16 17 18 19 19 18 19 19 18 17 17 17 16 15 16 15 14 14 13 13 13 13 14 14 14 14 13 13 14 13 13 11 10 11 10 10 9 6 5 5 5 6 6 5 5 5 5 4 3 4 4 4 4 3
1 1 1 2 2 4 7 2 3 4 3 5 6 3 6 7 8 5 10 12 14 13 12 12 10 8 9 7 6 6 5 5 7 10 12 12 12 12 13 13 15 16 16 17 18 19 20 19 19 19 19 18 18 17 16 15 15 14 13 12 11 11 11 12 13 14 14 15 15 13 13 13 12 12 10 9 10 10 11 8 6 9 9 7 6 6 6 7 7 6 5 4 4 4 5 5 4
2 1 2 3 1 4 9 4 5 5 2 3 5 3 5 7 8 7 10 11 12 12 12 11 9 9 9 7 6 5 4 4 7 11 12 12 12 13 15 15 16 17 18 19 19 20 21 20 20 20 18 18 17 17 15 14 13 13 11 10 9 9 9 11 12 13 13 13 14 12 11 12 10 9 9 9 9 9 8 6 7 10 11 8 6 6 7 7 8 7 5 4 5 6 5 5 5
4 2 2 2 1 2 6 3 5 6 1 1 4 3 3 6 5 6 9 11 9 9 11 10 8 8 7 5 5 5 4 4 6 10 13 13 13 14 16 16 18 18 19 21 21 22 22 22 21 20 18 17 17 16 15 13 12 11 10 9 7 7 8 9 11 11 10 9 9 8 8 9 8 8 8 9 10 9 8 8 9 10 11 10 7 6 7 7 7 7 5 4 5 7 8 7 7
4 3 1 2 1 1 3 4 4 1 2 3 2 4 5 6 3 6 9 11 9 7 10 10 9 8 5 4 4 4 5 5 6 9 13 15 15 16 17 16 18 19 19 21 22 22 23 22 21 20 17 17 17 15 14 13 12 11 9 8 7 6 7 7 8 8 7 7 7 7 8 7 6 6 7 9 10 10 10 10 10 10 12 12 9 7 7 7 7 8 7 5 5 7 9 11 10
2 0 1 2 3 2 3 4 4 2 1 4 3 3 7 8 2 7 10 11 10 9 9 8 9 8 6 5 5 5 5 7 7 8 13 15 15 16 17 17 18 21 21 22 22 23 24 22 20 19 17 17 16 14 13 13 12 11 10 8 7 6 6 6 5 5 5 5 5 6 5 4 3 4 5 7 8 9 10 11 11 10 10 11 10 7 7 8 7 7 8 8 8 8 10 13 11
6 4 3 3 3 4 5 5 5 1 0 5 6 5 7 6 3 8 10 9 9 9 7 5 5 6 6 6 6 6 7 8 6 7 12 15 15 15 16 17 20 22 21 20 20 21 22 22 21 19 17 17 16 15 14 14 13 12 11 9 8 7 6 5 4 3 3 3 4 3 2 1 1 2 3 5 5 6 8 9 10 9 8 9 8 6 6 7 7 7 8 9 9 7 10 12 11
5 4 2 3 3 5 6 6 6 2 4 5 6 7 7 7 7 9 9 7 7 8 7 5 5 6 6 7 8 8 7 6 4 7 12 14 15 15 15 16 19 21 19 18 19 19 20 22 22 20 18 17 18 18 17 16 15 13 12 11 9 7 7 6 5 4 4 3 2 2 2 2 2 1 2 4 4 4 5 5 7 8 7 7 6 5 5 6 6 7 7 8 8 8 11 12 11
3 2 1 2 3 5 7 5 6 1 4 4 3 8 6 4 4 7 9 9 9 11 9 7 8 7 6 7 9 8 5 3 4 7 11 14 16 17 17 17 18 20 19 19 19 19 20 21 22 21 20 19 19 18 17 17 16 13 12 11 9 8 7 6 6 7 6 6 6 6 5 4 3 3 2 3 3 3 4 3 5 6 6 5 5 5 6 6 7 7 6 6 8 10 12 13 13
3 2 1 2 3 4 6 5 4 3 1 2 2 6 1 5 2 4 8 9 6 6 7 6 7 7 7 9 8 7 6 5 5 6 9 14 15 17 18 17 18 20 20 20 20 19 20 21 22 22 21 21 19 18 17 16 15 13 11 9 8 7 6 6 6 7 7 7 7 7 6 5 4 4 4 4 4 4 4 3 4 5 4 4 4 5 6 7 8 8 7 8 10 12 13 13 13
3 4 3 3 3 1 3 5 4 4 1 2 5 6 3 5 2 3 4 4 1 2 5 4 5 7 7 7 6 6 8 7 6 6 7 10 14 15 16 17 18 20 20 21 21 21 21 22 23 23 23 22 20 18 17 17 16 15 12 10 9 7 6 6 6 6 6 6 6 5 4 4 4 4 5 5 5 5 4 4 4 3 3 4 4 4 5 4 5 7 9 10 11 11 11 10 8
2 4 5 3 4 4 4 4 5 5 3 4 6 6 4 3 0 4 3 1 1 2 5 5 4 5 5 5 5 6 7 7 7 7 6 8 11 14 15 16 17 19 21 23 24 23 23 23 23 23 23 22 20 19 19 18 16 16 14 12 11 8 7 7 6 5 5 5 5 3 3 3 3 4 4 4 5 4 4 4 3 3 3 3 3 4 3 2 3 5 8 10 11 11 9 6 4
3 5 9 8 6 5 3 3 5 4 4 3 5 4 3 5 3 5 2 2 4 1 4 6 5 5 6 6 6 6 6 6 6 6 5 6 9 13 14 15 17 19 22 24 25 24 23 23 23 23 24 23 22 21 20 18 16 16 14 13 13 11 10 9 7 6 5 4 4 3 3 3 3 3 3 4 4 3 2 3 4 4 4 3 4 5 3 4 4 4 7 9 10 11 9 7 6
1 5 8 8 6 3 1 3 3 2 0 1 3 4 1 5 4 4 2 3 6 3 3 6 6 7 7 6 6 6 6 6 5 5 6 7 10 12 14 17 20 21 22 23 25 25 25 24 24 25 25 24 23 23 21 19 17 16 15 14 14 14 13 11 8 7 6 5 4 4 5 6 6 4 3 3 3 2 2 2 3 4 5 4 4 6 6 6 4 4 6 6 8 10 8 8 8
2 5 6 7 6 4 4 5 4 2 2 2 4 4 4 0 4 5 3 1 5 6 6 6 6 7 7 7 6 7 7 7 6 6 6 7 11 14 15 18 21 21 22 24 26 27 27 27 26 26 26 25 25 24 23 20 19 18 16 15 15 14 12 11 10 8 7 7 6 6 7 8 8 6 5 3 3 3 2 3 3 3 4 4 4 5 7 6 5 5 6 6 8 9 8 7 7
6 5 7 6 5 6 5 6 3 1 1 2 6 4 4 2 5 5 4 1 5 8 9 8 8 8 8 7 7 7 7 7 7 7 8 9 12 16 17 18 19 20 22 25 28 29 29 28 28 27 27 26 25 24 23 21 19 18 17 17 16 13 11 11 10 8 8 8 8 9 8 8 8 7 6 4 3 3 1 2 3 3 5 5 6 7 8 7 5 5 5 5 7 7 6 5 4
4 6 6 5 6 5 4 5 3 3 3 3 6 4 3 3 5 3 3 0 5 7 8 7 8 8 7 7 7 7 7 6 7 7 7 10 14 16 16 17 19 20 21 23 26 27 28 28 28 28 28 27 26 24 22 21 19 18 17 17 16 13 12 10 10 9 9 8 8 9 8 8 7 6 6 4 4 4 3 2 3 4 6 7 8 9 9 9 7 6 6 5 5 5 5 4 3
4 6 7 6 6 5 4 3 4 4 2 5 6 3 3 1 5 2 1 2 4 5 6 6 6 8 8 8 8 8 7 6 6 6 7 10 14 15 15 16 19 19 20 21 23 24 25 26 27 27 27 27 26 24 22 21 19 18 17 16 16 14 13 11 11 10 10 9 8 8 7 7 6 5 5 5 6 6 5 4 3 5 8 9 10 10 9 9 8 8 8 8 8 7 7 7 8
5 4 5 4 4 5 4 4 4 4 2 5 6 3 3 2 3 2 2 6 5 4 7 8 6 7 8 8 8 8 7 6 6 6 6 8 10 12 13 14 15 16 18 19 21 22 22 24 26 26 26 26 26 25 23 22 20 18 17 16 16 15 13 12 11 11 11 10 9 8 7 6 6 5 5 6 6 6 5 4 4 5 7 8 8 8 8 8 8 8 10 11 11 11 11 11 11
5 5 5 4 2 3 1 3 1 2 4 3 4 3 2 3 5 3 3 7 7 6 7 9 7 6 6 7 8 7 7 7 7 6 6 6 6 8 10 11 14 16 19 20 21 21 22 23 25 26 27 26 25 24 23 22 21 19 17 16 15 14 13 12 11 11 11 11 9 8 7 6 5 5 6 6 6 6 4 4 4 5 7 7 7 7 7 7 7 8 9 10 12 13 13 12 14
4 5 4 4 3 2 1 2 1 1 3 2 4 3 1 3 3 2 4 6 7 7 6 7 7 7 7 7 7 7 7 7 5 4 4 4 5 6 7 10 15 17 20 21 22 22 22 23 24 26 26 23 22 23 24 21 17 14 12 11 10 12 13 11 11 11 11 11 10 8 7 5 5 6 6 6 5 5 3 3 4 6 7 6 6 6 6 6 6 7 8 8 10 11 11 12 13
3 4 5 5 4 4 3 3 2 2 2 2 4 2 2 3 3 4 5 4 4 4 4 4 4 2 3 6 6 6 6 5 6 7 8 7 7 9 4 9 14 17 19 20 22 23 23 24 24 24 22 20 19 20 21 18 14 13 12 10 8 12 13 12 12 11 11 12 10 7 6 5 5 6 7 6 6 4 2 3 5 7 7 7 6 6 7 7 7 7 7 7 8 9 9 11 11
1 2 5 3 4 5 3 3 4 4 2 0 2 2 2 3 3 6 4 4 7 7 6 7 7 5 4 6 6 7 7 7 8 8 8 8 10 8 7 17 16 17 19 20 22 23 23 24 22 18 16 17 19 21 22 20 17 16 14 10 9 13 15 15 14 12 11 11 8 7 6 5 5 7 7 7 6 4 3 4 6 7 7 7 7 7 7 7 7 8 8 8 9 9 9 11 11
1 2 3 4 4 7 6 2 1 3 4 2 1 2 4 2 2 5 5 6 7 8 8 7 6 6 7 6 5 6 7 7 8 7 7 8 10 8 21 26 19 19 20 21 22 22 22 22 18 14 14 17 20 19 14 13 15 15 12 8 10 16 18 17 16 13 11 10 8 7 6 5 5 6 7 7 6 5 4 5 6 6 7 7 7 8 8 8 8 8 8 9 10 10 11 12 12
5 3 5 3 3 5 5 3 3 4 3 2 2 1 4 1 1 4 7 7 6 7 7 6 6 6 7 6 5 6 6 5 5 6 3 4 10 16 22 20 15 16 17 18 18 18 18 17 16 16 15 15 13 11 11 12 13 13 12 11 15 19 19 18 17 13 9 9 10 9 7 7 6 6 7 8 7 6 6 5 5 5 5 5 6 6 7 7 8 8 9 10 11 11 12 13 12
4 4 4 4 3 2 2 3 2 2 2 2 2 1 2 2 3 3 4 3 5 5 5 5 5 5 5 5 5 6 7 6 4 4 2 2 1 3 7 7 8 9 10 10 10 11 12 12 13 14 14 14 14 12 12 18 19 15 13 14 17 20 19 19 19 13 8 8 11 11 9 8 7 6 7 8 8 8 6 6 5 4 4 3 4 4 5 7 7 8 9 10 11 11 11 13 12
4 2 3 2 3 4 2 3 3 4 4 2 0 2 2 4 4 2 2 5 6 2 2 3 3 3 4 3 4 6 8 6 3 3 4 3 5 6 5 4 2 2 2 4 4 6 8 10 12 14 16 16 17 20 23 23 21 19 17 17 20 21 20 20 20 15 11 11 13 13 12 10 8 8 8 8 9 9 8 7 7 6 5 4 3 3 4 5 6 6 7 9 10 10 11 12 12
3 3 2 2 2 3 2 2 2 4 5 3 2 0 4 5 3 2 5 6 6 4 3 1 3 3 3 0 2 5 6 6 4 3 4 3 5 8 10 10 8 5 3 2 2 4 7 10 12 14 17 18 19 23 24 23 22 20 17 20 23 23 22 22 21 18 16 16 15 15 15 12 10 9 8 8 9 9 9 8 8 8 6 6 6 5 4 4 4 4 5 7 8 8 8 9 10
5 3 2 3 3 4 4 2 0 2 4 4 4 3 5 4 2 4 6 5 6 5 5 2 2 3 4 3 2 4 4 5 5 4 3 3 5 8 11 12 11 9 7 5 5 5 7 9 10 12 15 17 19 23 26 26 25 20 18 22 25 24 24 23 22 22 22 19 17 17 16 14 12 10 9 8 9 9 9 8 9 9 9 8 7 7 7 6 5 5 4 5 6 6 6 7 7
Wind_Direction
124 125 96 93 172 142 147 101 92 314 94 274 269 227 257 236 237 298 299 300 290 292 17 54 57 350 116 122 142 131 96 148 165 149 201 267 108 141 150 154 159 158 156 155 156 163 167 166 166 164 159 154 150 145 142 140 141 140 137 135 134 134 133 131 130 129 128 127 126 125 124 125 126 125 126 125 123 124 126 126 122 117 112 107 107 112 114 113 113 117 120 120 120 122 123 122 126
131 135 103 134 142 143 188 79 98 312 65 320 270 182 250 299 286 270 295 292 252 111 70 73 78 66 78 102 123 110 48 43 142 155 76 106 110 122 144 152 153 154 154 154 157 162 167 166 166 164 160 158 153 148 144 141 141 140 139 136 136 135 134 133 133 133 132 131 129 127 127 127 127 125 125 125 124 124 127 127 125 121 116 110 108 111 112 109 108 118 122 121 120 124 125 124 129
135 150 163 156 117 81 104 47 101 126 105 225 269 223 246 305 206 269 306 273 191 114 95 61 63 56 67 75 61 60 58 85 107 106 86 113 111 114 142 151 151 153 152 154 159 162 165 167 168 165 163 162 156 150 145 142 139 139 139 138 137 136 136 136 134 134 133 133 132 130 129 129 126 124 123 124 123 123 125 125 123 120 116 114 113 111 110 104 103 114 120 121 122 126 127 127 132
141 150 174 166 101 28 76 49 134 124 150 216 268 256 233 164 193 285 319 284 176 154 32 37 35 347 73 87 49 64 90 112 91 88 100 111 126 137 148 155 154 155 154 157 160 161 164 166 167 165 163 162 156 151 145 141 139 138 139 139 139 138 137 136 134 133 132 132 132 132 132 131 129 125 124 123 122 122 123 123 121 119 117 118 118 113 109 102 101 108 116 123 127 130 131 132 136
143 150 170 155 105 74 107 86 117 127 200 188 229 259 229 182 193 269 310 301 232 190 44 61 41 329 46 86 72 60 55 97 84 83 97 119 146 151 154 159 159 157 155 156 158 158 159 159 161 163 162 161 158 152 146 141 139 138 139 140 140 140 138 136 135 134 133 133 132 132 133 134 133 129 127 126 125 123 123 123 122 123 124 122 118 115 111 106 105 108 113 123 131 134 136 136 137
140 136 117 87 98 157 117 125 159 204 226 164 210 262 224 196 200 237 290 301 265 145 76 86 121 9 53 42 50 52 25 129 88 76 100 137 153 155 153 154 154 150 149 151 154 154 152 153 157 163 164 163 161 155 151 145 141 141 140 140 141 142 140 137 137 137 136 136 134 134 136 136 136 134 131 129 129 127 128 128 128 132 131 126 121 120 115 110 113 116 118 127 135 133 136 137 139
154 142 54 72 50 27 112 172 196 222 245 175 210 272 270 228 193 217 293 301 324 91 68 82 110 102 70 1 80 45 30 41 113 108 123 140 149 149 146 146 143 139 143 148 151 151 148 151 156 162 165 164 163 159 156 151 146 144 143 142 142 142 141 138 138 139 139 138 137 137 138 138 139 138 136 135 135 135 135 133 134 138 135 129 127 126 116 110 116 121 124 134 138 133 136 140 145
152 158 23 97 74 20 110 203 229 213 250 225 224 263 278 274 228 219 241 254 307 101 114 105 101 92 34 328 96 44 40 71 111 120 132 137 142 145 146 146 140 135 141 146 147 148 148 152 156 159 161 162 163 164 162 157 153 149 146 145 144 145 143 142 141 141 139 138 138 139 139 139 139 140 140 141 142 141 141 140 139 140 138 134 132 128 114 108 115 121 125 134 139 138 139 141 149
97 68 133 99 117 52 53 258 255 235 254 260 255 262 275 280 270 208 186 219 231 147 143 133 112 111 119 70 87 55 55 97 116 122 133 138 143 145 146 146 141 134 135 140 144 147 151 154 155 155 160 163 164 168 169 164 160 154 150 150 150 150 148 146 145 143 140 138 139 139 140 139 138 138 139 143 145 143 144 144 140 139 140 139 136 128 115 108 117 123 126 132 137 141 143 144 153
51 34 147 92 111 121 319 276 254 255 251 252 259 265 274 279 261 204 182 201 197 140 135 100 90 119 130 107 84 58 95 117 119 119 131 140 145 144 141 141 139 134 133 139 144 147 151 155 154 155 161 164 164 170 172 169 166 160 156 156 156 155 152 151 148 145 142 140 139 139 139 138 137 136 137 143 144 142 143 144 139 138 138 139 138 129 118 115 122 127 128 130 134 142 150 155 159
47 342 104 81 96 162 232 248 266 266 268 280 274 262 257 266 273 223 169 166 178 133 155 110 93 125 117 102 78 97 120 123 121 121 133 141 143 142 138 138 140 139 139 141 142 145 147 150 151 152 158 160 162 168 172 172 170 164 162 161 161 159 155 154 151 148 146 142 141 139 139 137 136 136 137 142 144 143 143 143 141 139 140 139 137 131 123 123 130 132 129 128 132 141 151 160 165
96 316 67 99 159 187 201 208 270 283 294 307 285 275 261 277 312 230 154 136 148 126 166 162 135 141 108 100 104 116 120 122 126 128 138 142 141 142 140 140 143 146 147 146 144 145 143 144 145 146 155 159 162 167 169 171 170 168 167 165 163 162 158 156 154 152 150 145 143 142 139 137 136 137 137 140 142 143 141 140 141 139 140 136 132 128 123 124 129 130 124 121 123 133 145 155 163
127 157 94 145 195 166 166 165 266 312 319 285 251 282 315 337 345 216 145 124 133 127 184 180 152 134 98 119 115 119 123 130 133 135 142 142 141 141 140 142 147 153 154 151 148 147 145 146 146 144 152 163 166 164 166 170 169 170 169 168 166 163 160 158 157 157 153 149 147 146 143 141 139 139 138 140 141 141 138 135 137 137 138 135 132 125 119 118 119 119 115 112 109 110 127 147 156
146 150 122 174 167 126 157 153 250 5 293 265 256 302 332 359 337 169 115 106 107 141 150 130 139 112 97 134 127 133 138 143 140 139 143 140 140 139 140 143 149 156 156 154 153 153 154 156 152 148 155 167 169 163 164 168 169 173 172 171 168 164 162 160 162 161 158 154 152 150 148 146 143 142 141 142 143 139 136 135 135 135 136 136 133 128 122 118 115 111 109 109 104 93 102 134 148
162 127 97 134 67 102 187 179 163 139 248 262 290 330 342 348 29 76 90 106 85 1 93 96 117 87 151 169 164 166 152 148 141 139 141 138 140 140 141 145 150 156 156 157 158 157 157 158 156 155 163 169 170 165 162 165 171 175 174 173 169 165 164 163 166 165 164 161 156 153 149 148 145 143 144 146 144 141 139 139 136 130 133 136 138 137 131 125 117 110 109 110 110 93 85 112 135
136 106 73 107 211 189 198 194 141 133 251 252 283 358 5 343 27 58 347 131 116 32 49 73 324 1 168 181 141 145 147 142 137 137 139 138 141 140 142 147 152 157 158 161 160 157 156 157 159 161 167 170 169 166 162 166 172 175 174 174 171 167 166 167 169 167 167 163 159 154 150 151 148 144 147 150 148 148 145 140 135 128 129 136 142 146 142 136 124 115 113 112 114 103 86 100 123
76 83 75 132 207 182 189 197 165 169 262 273 323 25 31 349 13 47 17 70 101 63 38 34 343 13 142 128 124 134 139 137 136 136 137 138 140 140 145 151 156 160 162 162 159 158 160 161 163 166 169 170 168 165 165 167 170 173 173 174 172 169 169 170 170 169 169 163 162 161 158 156 150 146 149 154 154 152 148 140 135 129 126 133 145 151 152 148 135 125 118 115 115 113 99 98 113
63 91 125 206 190 183 183 189 187 180 273 289 324 20 49 1 28 94 44 40 57 64 46 52 49 63 99 116 126 134 138 139 140 138 140 143 144 147 153 158 162 165 165 164 162 163 166 166 166 169 171 172 170 167 167 166 168 170 171 173 173 171 170 172 172 171 171 169 172 173 167 158 149 147 151 157 157 152 148 142 136 131 128 131 142 149 155 156 144 134 128 121 116 118 113 103 109
105 117 158 216 196 208 197 196 209 188 282 298 310 341 14 292 171 134 100 24 35 73 57 76 84 94 109 121 129 136 140 142 145 143 145 153 156 159 159 162 166 168 170 170 170 170 169 168 169 172 173 173 173 170 167 166 168 169 169 171 172 171 172 174 175 176 179 180 182 180 171 161 152 148 150 155 155 150 147 142 135 131 132 129 132 138 149 155 150 144 141 136 120 116 116 106 110
163 137 190 240 207 228 248 237 239 217 1 312 302 320 334 285 187 119 139 129 82 129 142 116 121 132 130 131 136 139 141 144 149 147 151 162 166 167 165 168 172 174 175 174 173 174 172 170 171 173 174 174 174 169 166 167 170 169 169 170 171 172 176 180 182 185 188 191 189 184 174 167 160 152 147 153 159 157 150 145 141 139 142 144 132 114 132 152 160 162 163 160 127 115 111 101 110
171 151 192 232 172 204 260 240 254 270 130 256 296 329 323 305 92 118 136 121 205 212 206 177 153 149 141 140 143 142 142 144 152 154 159 167 171 173 173 173 178 179 177 174 173 176 176 173 173 172 173 175 172 168 168 171 171 169 169 171 173 177 182 184 188 194 194 195 194 188 179 176 173 166 163 165 171 170 161 156 157 158 155 143 104 45 33 159 183 181 185 190 137 114 101 92 106
158 225 198 200 142 192 259 223 242 263 151 205 304 324 303 322 26 139 138 136 220 227 210 186 158 153 149 145 145 143 145 149 155 162 167 171 175 175 176 177 181 181 177 175 174 177 178 175 175 174 173 174 173 173 172 173 173 171 172 174 177 183 188 189 193 198 199 199 196 192 185 182 184 182 183 182 180 182 175 169 164 163 164 120 51 26 19 9 337 204 209 220 160 119 98 89 99
206 273 257 234 173 203 263 210 207 217 251 262 244 298 308 28 4 240 151 192 254 270 190 162 155 153 145 142 146 149 155 159 163 170 172 174 178 178 179 181 181 178 177 178 177 178 181 179 178 176 174 175 176 176 175 174 176 177 175 177 183 188 191 196 199 199 201 202 198 197 191 188 192 194 201 201 197 197 193 188 180 178 196 254 343 2 7 12 0 327 251 236 184 144 99 83 93
188 266 301 272 183 203 255 254 243 222 250 260 254 330 301 260 268 33 332 293 303 314 136 141 150 148 140 143 151 157 162 165 170 174 176 181 185 182 181 181 180 177 176 179 180 179 182 183 181 178 178 178 177 178 180 180 182 182 179 182 188 192 196 201 203 203 202 203 201 201 195 194 200 207 214 216 217 219 218 212 208 213 226 252 280 327 347 0 343 334 309 220 169 145 106 92 102
206 227 268 274 198 227 259 271 271 255 245 254 300 289 264 234 181 108 290 305 12 100 124 137 147 146 146 152 155 160 166 167 170 173 180 188 189 185 182 179 177 177 175 178 180 178 181 185 184 182 181 180 181 182 185 185 185 185 185 189 192 198 203 206 208 209 207 204 203 203 201 201 204 213 220 220 228 238 241 233 221 223 236 251 269 310 330 337 331 334 324 206 157 139 111 101 107
221 210 241 269 274 268 273 276 263 250 242 181 177 260 262 231 141 129 242 146 104 122 127 140 147 148 152 156 160 162 167 171 173 176 181 187 188 188 184 178 176 175 174 174 177 177 179 185 187 188 184 184 188 187 187 189 189 189 193 196 198 205 210 212 213 214 214 210 205 205 208 210 212 218 222 223 233 245 252 248 234 228 237 249 265 293 300 303 326 343 341 183 158 148 129 113 108
200 192 236 246 267 286 262 264 261 226 238 180 181 241 273 358 121 257 231 134 133 131 132 149 150 151 154 157 163 162 172 178 176 174 178 181 185 189 181 175 172 168 171 168 172 178 181 187 190 192 191 190 192 192 193 195 196 198 201 202 205 212 216 216 219 219 218 214 212 215 216 218 221 223 225 229 239 247 253 253 244 236 241 251 264 274 268 270 299 328 325 185 180 180 170 141 111
185 174 272 273 297 306 234 247 261 195 231 198 181 219 12 51 176 233 190 139 146 138 142 158 152 148 153 157 161 163 179 179 175 176 180 183 186 187 174 170 166 159 167 166 170 178 184 192 193 195 196 194 195 197 199 201 204 208 209 209 211 218 219 220 224 226 225 219 218 221 222 225 229 230 230 234 241 244 249 252 245 243 259 267 270 270 262 256 270 296 298 236 223 222 220 230 228
205 128 293 296 357 337 258 249 240 173 210 191 159 214 331 259 235 241 153 141 149 142 150 160 155 154 157 164 168 170 178 171 176 186 190 188 189 186 169 170 169 160 165 168 172 180 189 196 196 199 200 198 198 202 206 208 211 214 216 216 217 222 224 227 233 237 237 231 228 229 233 234 235 238 237 237 241 242 246 244 239 252 277 275 277 275 263 251 248 263 282 286 265 241 238 250 255
296 74 115 306 7 334 275 298 148 157 186 163 142 241 276 256 259 245 151 149 151 149 160 164 158 161 164 173 176 176 176 171 183 192 192 190 189 180 163 168 172 167 166 168 175 184 191 197 200 202 203 203 204 207 212 213 213 216 221 221 221 227 230 235 242 246 247 245 240 235 240 245 243 241 239 240 242 242 243 237 225 236 244 253 273 269 247 234 227 233 252 278 282 260 247 247 249
337 357 41 3 26 285 290 314 129 158 206 150 142 238 253 267 273 208 161 160 158 158 169 169 163 166 171 179 179 184 178 172 190 195 196 192 182 171 162 167 172 171 170 170 181 189 192 198 204 206 206 206 208 212 214 213 215 220 224 224 227 236 242 245 249 252 255 254 244 234 239 251 251 245 243 245 244 241 240 232 214 216 217 223 253 245 218 218 217 218 227 246 265 263 262 259 235
35 71 316 351 134 269 303 296 169 186 269 115 144 231 258 265 256 190 166 170 166 164 171 169 165 168 173 179 176 182 170 164 193 201 203 195 180 170 168 171 171 174 176 176 184 190 194 200 205 208 207 206 208 211 212 213 218 221 226 228 232 244 252 256 258 259 262 262 256 252 247 247 251 249 248 245 237 234 234 229 219 216 215 218 234 230 216 218 219 219 220 232 243 236 242 252 224
359 91 225 286 136 283 316 304 212 199 225 94 164 179 247 262 235 178 166 175 173 168 173 171 168 171 172 171 170 179 172 174 202 208 206 198 186 178 177 177 175 178 181 181 184 191 196 199 203 206 203 202 204 206 209 212 216 219 223 223 228 241 250 258 263 265 270 269 269 274 257 243 243 243 241 236 229 228 232 230 225 223 225 222 220 231 232 226 227 227 220 228 236 228 226 224 208
319 31 102 248 214 259 310 308 285 147 122 238 201 159 226 270 226 166 171 179 181 178 179 178 176 174 161 151 168 185 183 200 212 205 204 201 193 187 186 184 182 185 187 186 189 195 196 197 202 205 201 201 202 202 206 208 210 212 213 215 221 224 231 245 254 260 265 264 265 269 261 251 248 245 239 235 230 228 230 231 229 228 230 229 225 231 240 238 237 231 222 221 214 211 218 214 202
191 138 59 297 296 274 253 274 290 17 39 228 204 193 240 279 266 171 178 178 184 189 187 187 182 171 152 154 182 191 193 216 218 198 198 200 198 195 193 190 188 190 192 191 193 197 196 196 203 206 202 201 198 199 202 202 203 203 204 204 205 205 211 223 231 239 248 256 261 263 272 279 268 258 242 232 230 228 228 231 233 231 232 234 229 229 243 246 240 229 221 226 220 205 210 215 209
152 166 155 192 268 278 251 252 259 238 122 228 211 205 226 246 197 175 181 176 179 188 188 187 171 155 155 171 190 194 203 221 220 194 196 197 198 200 198 195 193 191 193 194 195 198 197 196 203 206 204 199 194 194 197 197 195 195 197 195 193 195 191 190 197 209 215 231 247 254 277 299 259 240 223 209 213 224 230 233 236 235 232 229 228 237 255 247 236 235 232 234 233 209 198 202 199
129 131 151 195 218 275 266 263 280 143 145 241 218 185 207 217 193 177 173 165 173 181 183 183 169 164 173 185 194 197 204 217 205 190 197 196 194 196 196 197 195 189 191 195 194 198 201 201 203 204 203 200 194 193 194 193 189 187 190 192 189 182 175 171 166 159 148 143 148 133 120 124 130 164 204 183 176 207 222 229 236 235 228 225 230 242 254 246 237 243 244 236 224 198 186 183 179
101 132 233 276 219 248 259 256 300 347 163 256 206 169 212 239 196 176 164 169 188 189 186 186 183 178 175 191 201 196 192 187 170 177 190 195 192 187 188 196 197 191 189 194 196 198 201 203 204 204 202 201 198 196 193 191 189 188 190 191 184 172 165 161 149 140 132 122 114 105 105 103 105 120 144 148 148 175 190 201 217 222 228 235 236 232 237 244 241 239 235 213 197 192 188 178 171
89 111 163 270 241 270 289 272 310 342 179 274 133 139 263 306 253 198 182 184 197 191 184 182 185 185 185 198 203 190 184 186 185 180 184 192 190 184 186 192 197 195 193 195 197 199 199 201 204 205 204 201 199 199 196 189 188 190 192 187 179 168 158 151 145 140 134 127 118 108 104 96 98 111 113 114 117 131 149 168 186 195 215 226 229 229 225 225 225 223 211 187 183 188 186 181 177
111 126 142 246 264 317 292 283 322 352 48 112 108 95 1 335 344 262 227 197 71 104 142 149 182 196 202 210 206 191 191 193 195 190 183 188 186 184 188 191 193 195 194 194 197 199 199 201 203 205 204 201 198 198 195 188 186 187 184 179 175 168 159 159 158 150 142 136 126 113 102 93 97 114 115 107 99 105 123 138 151 157 172 189 202 212 210 213 218 217 207 191 185 185 183 188 193
235 179 170 217 251 215 224 291 337 350 22 76 82 58 352 354 24 251 260 246 316 101 138 154 179 189 201 218 213 199 194 193 196 195 188 186 183 184 189 192 192 192 193 195 198 200 200 201 201 202 201 198 196 195 193 191 189 185 177 171 172 170 168 175 179 174 161 146 135 120 96 86 92 107 116 108 89 79 101 121 131 137 149 165 177 181 190 220 221 220 209 196 198 206 203 205 210
280 225 202 195 201 219 240 345 16 31 17 22 66 65 320 324 286 238 255 244 242 206 161 181 183 179 190 207 204 194 191 192 195 194 185 184 181 181 186 192 193 194 196 197 199 201 202 200 198 196 196 194 193 193 193 196 197 194 188 182 180 180 178 181 183 179 172 157 137 113 97 99 103 109 126 115 87 57 67 115 124 126 130 138 158 163 182 221 226 224 215 203 210 221 226 229 216
324 245 205 176 166 171 93 55 63 91 255 324 79 114 209 318 293 264 309 251 242 255 214 205 196 190 195 204 199 188 189 187 185 184 175 179 183 181 185 191 193 195 197 198 198 199 201 199 195 193 194 193 193 193 195 199 202 202 202 199 196 193 185 178 177 174 167 159 136 110 106 111 114 118 129 125 106 74 64 96 107 116 119 111 130 151 166 196 206 208 212 208 208 210 216 229 218
240 234 153 139 151 149 122 92 89 182 224 328 18 92 120 339 268 286 349 277 265 268 240 226 213 205 199 200 199 190 186 181 180 184 178 183 190 190 191 192 194 196 195 195 196 197 198 197 194 193 195 196 195 195 196 199 201 200 200 201 200 197 188 178 178 175 162 154 137 122 116 115 117 121 122 123 135 124 88 82 84 125 138 108 98 125 142 159 171 180 190 188 191 200 209 223 217
239 203 134 133 142 135 119 95 80 14 107 296 326 34 99 239 273 317 19 71 269 263 241 230 218 213 202 195 199 195 190 184 181 187 183 185 193 195 195 195 196 196 195 195 195 195 196 195 194 195 197 199 198 197 195 197 201 199 196 198 195 188 184 180 181 179 166 156 140 129 123 118 116 118 118 118 138 145 118 81 73 113 148 127 110 118 126 133 139 153 162 165 173 187 197 209 215
213 152 101 66 70 77 80 93 96 31 53 238 292 0 104 254 286 324 29 238 256 260 251 234 215 211 201 192 195 192 189 187 185 188 184 187 193 194 194 196 196 196 197 198 196 195 195 194 194 196 199 201 201 199 196 196 199 199 198 198 194 186 182 181 182 181 175 167 150 138 131 124 118 115 116 124 144 153 154 123 89 109 134 133 129 127 126 126 119 118 124 132 144 154 159 153 145
133 107 66 46 35 32 42 54 83 65 359 255 271 306 127 228 284 248 183 252 257 269 287 277 224 203 196 191 189 188 186 185 183 182 178 179 185 189 192 195 195 195 199 201 200 199 197 195 196 198 201 203 202 200 200 201 203 204 204 204 203 196 189 186 187 185 182 178 164 151 143 134 126 121 124 135 146 146 144 141 126 125 134 138 140 136 127 121 114 110 107 105 110 114 117 117 120
104 86 73 74 5 11 29 359 48 94 267 261 275 289 128 148 255 216 252 282 286 273 275 280 254 212 203 190 182 182 177 175 178 176 171 163 166 177 185 191 191 194 200 205 207 205 202 201 201 201 202 203 204 204 203 205 205 207 210 214 212 206 200 198 199 198 191 185 175 166 159 149 141 139 140 145 146 145 146 145 146 145 143 142 143 139 128 120 115 112 107 104 102 102 105 110 113
83 89 85 92 19 11 31 317 30 154 237 258 292 291 155 206 232 213 269 280 284 269 255 268 273 251 222 190 178 175 167 172 176 171 164 152 149 156 165 177 187 195 203 207 211 212 210 208 205 205 205 205 205 203 203 206 207 209 212 215 215 211 208 209 213 210 200 193 188 181 177 171 165 160 155 155 153 152 154 152 156 154 147 144 142 138 132 128 126 122 116 112 107 104 104 107 110
132 141 128 119 102 81 189 267 333 219 238 270 301 285 225 264 269 303 304 277 274 280 275 274 271 248 213 180 167 162 159 161 155 135 107 86 72 86 127 177 191 200 206 207 211 215 215 213 211 209 207 204 204 203 202 203 199 196 197 201 213 217 217 222 223 217 212 209 201 194 197 196 187 174 164 165 164 158 154 152 161 159 154 153 152 152 148 141 141 137 131 125 116 111 111 111 112
171 161 130 138 154 141 186 215 168 192 229 307 305 285 167 207 281 314 303 292 305 324 334 342 335 289 173 145 134 133 128 111 100 87 79 76 69 76 125 209 205 205 210 209 211 214 216 217 215 211 205 201 202 200 197 191 181 180 183 182 205 222 226 233 228 219 219 218 209 203 210 210 193 179 173 174 173 166 156 146 152 156 159 160 158 159 156 154 157 154 149 142 129 125 125 121 118
228 136 109 149 181 141 132 170 166 165 134 13 281 245 207 211 280 311 327 357 3 5 7 24 30 21 63 95 107 116 111 104 105 102 104 103 81 78 236 242 228 214 213 211 211 212 214 217 214 207 199 196 199 199 195 187 178 180 180 176 204 223 228 233 230 223 219 219 220 222 221 216 197 184 184 186 181 176 173 156 148 147 149 147 145 144 141 143 152 154 156 151 138 136 134 125 122
177 132 157 214 175 120 110 130 48 80 122 194 258 268 303 337 314 318 5 27 11 8 7 20 38 44 61 71 80 99 104 111 118 118 125 121 115 176 234 242 233 220 217 214 212 212 215 216 209 198 195 200 201 195 177 151 147 160 167 176 213 224 226 230 229 226 221 215 219 228 226 219 204 194 197 201 194 187 184 170 155 146 143 137 136 138 135 134 138 142 147 143 137 137 132 126 123
128 176 200 189 111 99 104 109 18 49 138 246 348 299 299 17 184 320 17 30 3 5 5 7 34 58 71 72 73 77 67 61 83 96 112 166 170 200 229 241 235 226 221 217 213 212 213 212 205 196 196 194 174 130 102 118 146 170 184 197 215 220 222 223 223 226 230 221 216 221 226 219 211 207 207 209 209 202 194 190 180 161 148 140 139 140 139 140 140 140 140 136 136 138 132 127 124
120 171 164 115 123 145 93 117 138 107 154 260 348 345 265 200 215 319 19 356 326 356 17 13 32 65 82 91 98 100 86 65 61 87 70 319 183 220 259 270 258 242 232 223 212 205 200 196 192 186 182 175 155 149 175 184 184 197 207 204 212 222 222 217 217 219 224 228 225 225 227 220 217 221 220 216 215 212 208 208 207 196 180 163 153 148 148 152 149 143 141 136 136 139 133 128 125
44 77 55 50 129 154 151 138 150 143 154 193 344 7 280 226 217 264 294 272 279 306 42 6 359 65 95 120 119 113 111 114 142 131 99 61 54 54 48 31 336 280 242 226 203 189 179 173 172 169 170 176 180 190 196 193 194 209 217 205 209 225 226 215 215 213 204 216 231 233 230 225 223 225 227 223 219 217 218 222 223 222 222 222 210 189 172 171 165 152 144 138 136 138 134 129 128
72 52 34 17 63 117 145 92 95 127 140 164 152 205 270 254 227 275 292 274 256 223 173 256 313 30 57 88 117 109 116 124 125 94 79 74 70 69 67 62 57 58 61 75 119 154 156 156 159 164 174 184 190 192 190 196 206 214 218 210 208 220 224 213 212 214 209 212 224 230 231 230 228 230 235 234 226 222 223 229 232 235 239 242 239 233 222 209 202 185 161 150 144 141 137 131 130
138 124 134 145 123 123 125 112 272 107 120 164 155 173 263 279 289 296 296 273 257 227 168 162 327 22 29 358 35 75 84 98 100 89 76 53 46 60 63 60 59 61 64 77 91 119 139 150 157 166 182 191 194 192 192 200 210 213 217 215 209 214 218 211 210 217 220 220 221 223 229 232 230 232 241 244 238 230 229 234 237 239 242 244 244 240 237 235 230 223 205 182 168 159 153 147 141